Location: Bramevaque
(42.9773°N, 0.5757°E)
Time: 04:44:29
(UTC+00:00)

Cosmos 2279 Rocket - Pass Details

Date: 15 May 2026
Orbit: 963 x 978 km, 82.9° (Epoch: 6 June)

Event Time Altitude Azimuth Distance (km) Brightness Sun altitude
Exits shadow 22:16:39 41° 109° (ESE) 1,393 4.5 -24.1°
Maximum altitude 22:17:28 43° 89° (E) 1,353 4.5 -24.1°
Drops below altitude 10° 22:23:19 10° 21° (NNE) 2,736 6.9 -24.6°
Sets 22:25:57 0° 15° (NNE) 3,688 7.8 -24.7°
